sat.trackr.live / text

‹ back to catalog

ONEWEB-0450

NORAD 50504 · 2021-132AM

PAYLOAD ACTIVE UNKNOWN

§ Identity

Operator
Country
UK
Launch date
2021-12-27
Launch site
TYMSC
Launch vehicle
Mass (kg)
RCS (m²)

Purposes: comms

External: N2YO · Heavens-Above · Gunter

§ Orbital elements

Epoch: 2026-09-19T23:01:03.127008Z

Period
109.20 min
Inclination
87.9164°
Eccentricity
0.0001854
Mean motion
13.18686864 rev/d
Perigee alt
1,188.3 km
Apogee alt
1,191.1 km
Semi-major
7,567.9 km
B*
1.3791e-4
RAAN
316.6237°
Arg perigee
91.9666°
Mean anomaly
268.1678°
Rev number
23,409

§ Raw data

ONEWEB-04501 50504U 21132AM  26262.95906397  .00000067  00000+0  13791-3 0  99952 50504  87.9164 316.6237 0001854  91.9666 268.1678 13.18686864234091

JSON: /api/v1/satellites/50504 · /tle

For live sub-satellite position, see the globe view (requires WebGL).

§ Visibility from observer

Set your observer location to see the next 7 days of passes ≥ 10°. The values pass through the URL so the page stays shareable.

No JS? Fill the form by hand. The geolocation button needs JavaScript.